[[{"header":{"parameterUnit":"m.s-1","parameterCategory":1,"la1":30.2991,"la2":30.254,"lo1":-89.0895,"lo2":-89.0444,"dy":0.0017,"dx":0.0017,"nx":28,"ny":28,"refTime":"2025-07-13T21:00:00:Z","depth":0,"parameterNumber":2,"parameterNumberName":"U-component_of_WINDS"},"data":[0,0,0,0,0,0,0,0,0,0,0,0,0,0,0,0,0,0,0,0,0,0,0,0,0,0,0,0,0,0,0,0,0,0,0,0,0,0,0,0,0,0,0,0,0,0,0,0,0,0,0,0,0,0,0,0,0,0,1.9339,1.934,0,1.9424,1.9425,1.9425,1.939,1.9388,1.9386,1.9384,1.9471,1.9475,1.948,0,0,0,0,0,0,0,0,0,0,0,0,0,1.9148,1.9151,1.9339,1.934,1.9341,1.9423,1.9425,1.9426,1.939,1.9388,1.9385,1.9383,1.947,1.9475,1.948,0,0,0,0,0,0,0,0,0,0,0,0,0,1.9231,1.9153,1.9339,1.9333,1.9334,1.9423,1.9425,1.9426,1.9391,1.9388,1.9385,1.9382,1.9468,1.9474,1.9481,1.9581,0,0,1.95,1.9503,0,0,0,0,0,0,0,0,1.9227,1.9238,1.9333,1.9334,1.9334,1.9393,1.9389,1.9478,1.9392,1.9369,1.9384,1.938,1.9448,1.9456,1.9478,1.9585,1.9589,1.9501,1.9504,1.9507,1.9509,0,0,0,0,0,0,0,1.9221,1.9235,1.9372,1.9334,1.9335,1.9327,1.9335,1.9406,1.9425,1.9371,1.9368,1.9379,1.9448,1.9472,1.948,1.959,1.95,1.9506,1.951,1.9512,1.9784,1.9787,0,0,0,0,0,0,1.9215,1.923,1.937,1.9375,1.9272,1.9333,1.9342,1.9377,1.9424,1.9428,1.9381,1.9377,1.9463,1.9473,1.9483,1.9604,1.9507,1.9513,1.9517,1.9781,1.9785,1.9789,0,0,0,0,0,0,1.9211,1.9228,1.9366,1.9302,1.9319,1.9339,1.9379,1.9381,1.9405,1.9432,1.9435,1.9403,1.9461,1.9474,1.9557,1.9607,1.9516,1.9522,1.9777,1.9782,1.9787,1.9847,0,0,0,0,0,0,1.9206,1.9226,1.9265,1.9303,1.9322,1.9439,1.9382,1.9384,1.9416,1.9411,1.9453,1.9457,1.9459,1.9548,1.9563,1.9614,1.9527,1.9772,1.9779,1.9785,1.9841,1.9853,1.9864,0,0,0,0,0,1.9199,1.9278,1.9267,1.9284,1.937,1.9442,1.9453,1.9454,1.942,1.9459,1.9476,1.9456,1.9598,1.9556,1.9574,1.9627,1.9769,1.9777,1.9785,1.9835,1.9851,1.9864,0,0,0,0,0,0,1.9245,1.9283,1.9271,1.9365,1.94,1.9436,1.9484,1.947,1.9517,1.951,1.9509,1.9519,1.9605,1.9624,1.9577,1.9727,1.9679,1.969,1.9711,1.9726,1.9738,1.9732,1.9532,0,0,0,0,0,1.9266,1.9321,1.9351,1.9431,1.9449,1.9464,1.9495,1.9493,1.953,1.9545,1.9568,1.9605,1.9658,1.9693,1.9743,1.9843,1.9852,1.9888,1.99,1.9909,1.992,1.9975,1.9991,1.9814,1.9814,1.9814,0,0,1.9311,1.9338,1.9373,1.9441,1.9468,1.9525,1.9477,1.9539,1.9581,1.9554,1.9634,1.9652,1.9693,1.9785,1.9827,1.9804,1.997,1.9919,1.9927,1.9932,1.9984,2.0001,2.0016,1.9819,1.9818,1.9817,0,0,1.9421,1.9447,1.9517,1.9545,1.9587,1.9596,1.9613,1.965,1.9661,1.9741,1.9722,1.9773,1.9864,1.9895,1.9922,2.0044,2.0027,2.006,2.0123,2.0176,2.019,2.0203,2.0247,2.0263,2.007,2.007,2.007,0,1.9471,1.9556,1.9554,1.9618,1.9649,1.9627,1.9698,1.9725,1.9782,1.9804,1.9777,1.9892,1.9918,2.0017,2.0047,2.0069,2.0089,2.0056,2.0188,2.0201,2.0212,2.0255,2.0271,2.0074,2.0074,2.0073,2.0073,0,1.9615,1.9674,1.9726,1.9781,1.9817,1.9885,1.9894,1.9931,1.9926,1.9938,2.002,2.0051,2.0107,2.013,2.0126,2.0229,2.0214,2.0188,2.014,2.0233,2.0273,2.0289,2.008,2.0078,2.0077,2.0076,0,0,1.9758,1.9811,1.983,1.9855,1.9899,1.9945,2.0012,2.0067,2.0099,2.0139,2.0195,2.0273,2.0249,2.028,2.0279,2.0326,2.0421,2.0294,2.0295,2.0318,2.0539,2.0559,2.0577,2.041,2.0413,2.0416,2.0536,0,1.9872,1.9988,1.9989,2.0096,2.0151,2.0131,2.0189,2.0222,2.0235,2.0284,2.0299,2.0354,2.0318,2.0337,2.0383,2.04,2.0466,2.0391,2.0463,2.0466,2.0455,2.0598,2.0619,2.0731,2.0551,2.0554,2.0556,0,2.0021,2.0066,2.0178,2.0215,2.0238,2.029,2.0341,2.0388,2.0426,2.0432,2.0467,2.0458,2.0526,2.0476,2.057,2.052,2.0549,2.0562,2.0566,2.0574,2.0517,2.0611,2.0767,2.0784,2.058,2.0578,2.0576,0,2.0115,2.0203,2.0282,2.0304,2.0348,2.0386,2.0406,2.0441,2.0474,2.0518,2.054,2.0592,2.0621,2.0661,2.0667,2.063,2.0763,2.0712,2.0771,2.0771,2.08,2.0799,2.0964,2.0818,2.0817,2.0817,2.0817,0,2.0244,2.0314,2.0325,2.0374,2.0452,2.0452,2.0529,2.0546,2.0578,2.063,2.0615,2.0664,2.0668,2.0719,2.0724,2.0802,2.0815,2.0823,2.0824,2.0825,2.0824,2.0845,2.0838,2.0822,2.0821,2.082,2.0819,0,2.0362,2.0373,2.0457,2.0493,2.0503,2.0559,2.0589,2.0636,2.0647,2.0714,2.0729,2.0747,2.0807,2.0816,2.0886,2.0889,2.0983,2.0975,2.097,2.097,2.1028,2.1023,2.1214,2.1239,2.1075,2.1076,2.1078,0,2.0444,2.0498,2.0539,2.0572,2.0594,2.0649,2.0683,2.0685,2.0721,2.0768,2.0809,2.0867,2.0913,2.1009,2.1029,2.1082,2.1076,2.1139,2.1084,2.1084,2.1079,2.1076,2.1082,2.115,2.1152,2.1154,2.1155,0,2.0589,2.0591,2.064,2.0691,2.0732,2.0772,2.0811,2.0839,2.0846,2.0887,2.0948,2.0983,2.1054,2.1112,2.1165,2.1187,2.1173,2.1172,2.1188,2.1191,2.1186,2.1191,2.1001,2.1168,2.1166,2.1165,2.1165,2.1164,2.0693,2.0739,2.0776,2.0831,2.086,2.0896,2.0941,2.0958,2.1008,2.1066,2.1064,2.1131,2.1168,2.1237,2.1262,2.1315,2.1295,2.1318,2.1324,2.1331,2.1337,2.1177,2.1324,2.1324,2.1324,2.1323,2.1323,0,2.0838,2.086,2.091,2.0964,2.1008,2.0989,2.1031,2.1069,2.1127,2.1163,2.1208,2.1278,2.1334,2.1358,2.1413,2.145,2.1446,2.1465,2.1463,2.1468,2.1351,2.1332,2.1468,2.1468,2.1468,2.1468,2.1468,2.1468,2.0918,2.0997,2.1003,2.1096,2.1117,2.1182,2.1207,2.1241,2.1269,2.1347,2.1393,2.1408,2.144,2.1497,2.1548,2.1553,2.1575,2.1598,2.1601,2.1491,2.1476,2.1462,2.1444,2.1602,2.1602,2.1713,2.1714,2.1715]},{"header":{"parameterUnit":"m.s-1","parameterCategory":1,"la1":30.2991,"la2":30.254,"lo1":-89.0895,"lo2":-89.0444,"dy":0.0017,"dx":0.0017,"nx":28,"ny":28,"refTime":"2025-07-13T21:00:00:Z","depth":0,"parameterNumber":3,"parameterNumberName":"V-component_of_WINDS"},"data":[0,0,0,0,0,0,0,0,0,0,0,0,0,0,0,0,0,0,0,0,0,0,0,0,0,0,0,0,0,0,0,0,0,0,0,0,0,0,0,0,0,0,0,0,0,0,0,0,0,0,0,0,0,0,0,0,0,0,-1.0847,-1.0849,0,-1.0991,-1.0993,-1.0994,-1.1073,-1.1073,-1.1074,-1.1074,-1.1222,-1.1226,-1.1229,0,0,0,0,0,0,0,0,0,0,0,0,0,-1.0641,-1.0644,-1.0847,-1.0849,-1.0851,-1.0991,-1.0993,-1.0995,-1.1073,-1.1073,-1.1074,-1.1074,-1.1221,-1.1225,-1.123,0,0,0,0,0,0,0,0,0,0,0,0,0,-1.0752,-1.0646,-1.0847,-1.0907,-1.0913,-1.0991,-1.0993,-1.0995,-1.1073,-1.1074,-1.1074,-1.1074,-1.1219,-1.1225,-1.123,-1.1259,0,0,-1.1248,-1.125,0,0,0,0,0,0,0,0,-1.0746,-1.076,-1.0896,-1.0903,-1.091,-1.1015,-1.0975,-1.1084,-1.1073,-1.1013,-1.1074,-1.1074,-1.1153,-1.1164,-1.119,-1.1266,-1.1272,-1.1248,-1.1251,-1.1254,-1.1255,0,0,0,0,0,0,0,-1.0738,-1.0754,-1.0904,-1.0898,-1.0907,-1.0927,-1.0943,-1.0996,-1.1079,-1.1018,-1.1024,-1.104,-1.1157,-1.1185,-1.1194,-1.1275,-1.1248,-1.1253,-1.1256,-1.1259,-1.1382,-1.1382,0,0,0,0,0,0,-1.0721,-1.0747,-1.09,-1.0908,-1.0827,-1.093,-1.0948,-1.0981,-1.1079,-1.1094,-1.1039,-1.1043,-1.1175,-1.1188,-1.12,-1.1241,-1.1254,-1.1259,-1.1262,-1.1383,-1.1382,-1.1382,0,0,0,0,0,0,-1.0716,-1.0733,-1.0894,-1.083,-1.0851,-1.0933,-1.0969,-1.0983,-1.1011,-1.1095,-1.1111,-1.1052,-1.1176,-1.1192,-1.1244,-1.1247,-1.1262,-1.1267,-1.1383,-1.1383,-1.1382,-1.1322,0,0,0,0,0,0,-1.071,-1.0731,-1.0743,-1.0829,-1.0855,-1.0935,-1.097,-1.0986,-1.1021,-1.1027,-1.1112,-1.1126,-1.1177,-1.1235,-1.125,-1.1255,-1.1271,-1.1383,-1.1383,-1.1382,-1.1324,-1.1319,-1.1316,0,0,0,0,0,-1.0702,-1.072,-1.0743,-1.0761,-1.087,-1.0935,-1.0949,-1.1008,-1.1021,-1.1033,-1.1087,-1.1123,-1.1244,-1.124,-1.1257,-1.1264,-1.1383,-1.1383,-1.1382,-1.1326,-1.132,-1.1316,0,0,0,0,0,0,-1.0631,-1.0732,-1.0759,-1.0805,-1.0861,-1.0948,-1.0965,-1.1,-1.1054,-1.1057,-1.1128,-1.1146,-1.1191,-1.1233,-1.1226,-1.1297,-1.1317,-1.1321,-1.1268,-1.1264,-1.126,-1.1249,-1.1276,0,0,0,0,0,-1.0621,-1.0664,-1.075,-1.0783,-1.0809,-1.0882,-1.0912,-1.0953,-1.1014,-1.1038,-1.1095,-1.1153,-1.1205,-1.1237,-1.1288,-1.133,-1.135,-1.1344,-1.134,-1.1336,-1.1338,-1.1364,-1.1362,-1.1382,-1.1382,-1.1382,0,0,-1.06,-1.0661,-1.0684,-1.077,-1.0818,-1.0862,-1.0901,-1.0946,-1.098,-1.1045,-1.1097,-1.1142,-1.1211,-1.1258,-1.1282,-1.1294,-1.1337,-1.1336,-1.1332,-1.1336,-1.1363,-1.1362,-1.136,-1.1382,-1.1382,-1.1382,0,0,-1.0584,-1.0634,-1.0667,-1.0715,-1.0787,-1.0836,-1.0843,-1.0926,-1.0958,-1.1012,-1.1062,-1.1103,-1.1189,-1.1237,-1.1273,-1.1276,-1.1312,-1.1291,-1.127,-1.1295,-1.1293,-1.1292,-1.1294,-1.1294,-1.1293,-1.1293,-1.1293,0,-1.0549,-1.0617,-1.0679,-1.0722,-1.0758,-1.082,-1.0854,-1.0897,-1.0982,-1.1006,-1.1019,-1.113,-1.1181,-1.124,-1.1241,-1.1268,-1.1279,-1.1282,-1.1288,-1.1288,-1.1288,-1.129,-1.1291,-1.129,-1.129,-1.129,-1.1291,0,-1.0571,-1.0617,-1.0635,-1.0716,-1.0755,-1.0793,-1.0861,-1.0894,-1.0931,-1.0978,-1.1033,-1.1097,-1.1163,-1.118,-1.1217,-1.1245,-1.1251,-1.1275,-1.1296,-1.1282,-1.1286,-1.1287,-1.1286,-1.1287,-1.1288,-1.1288,0,0,-1.0513,-1.0629,-1.0635,-1.0673,-1.0757,-1.0795,-1.0836,-1.0901,-1.0927,-1.0984,-1.1021,-1.1093,-1.1117,-1.1157,-1.12,-1.1221,-1.1221,-1.1243,-1.1246,-1.1237,-1.1257,-1.1238,-1.1238,-1.1245,-1.1246,-1.1246,-1.1251,0,-1.051,-1.0586,-1.0644,-1.0698,-1.0742,-1.0802,-1.0838,-1.0894,-1.0939,-1.0984,-1.1035,-1.1085,-1.1112,-1.1137,-1.1161,-1.1216,-1.1226,-1.1216,-1.128,-1.1282,-1.126,-1.124,-1.122,-1.1221,-1.1253,-1.1253,-1.1253,0,-1.0516,-1.0571,-1.0629,-1.071,-1.0731,-1.0762,-1.0827,-1.0869,-1.0934,-1.0966,-1.1011,-1.1056,-1.1103,-1.112,-1.1186,-1.1178,-1.1208,-1.1239,-1.1241,-1.1249,-1.1266,-1.1247,-1.1223,-1.1223,-1.1256,-1.1256,-1.1256,0,-1.0468,-1.0557,-1.0604,-1.0634,-1.073,-1.0751,-1.0792,-1.0858,-1.0893,-1.095,-1.0974,-1.1035,-1.1068,-1.1115,-1.1175,-1.1183,-1.1235,-1.1258,-1.1263,-1.1262,-1.1271,-1.127,-1.1252,-1.1291,-1.1291,-1.1291,-1.1291,0,-1.0458,-1.0491,-1.0584,-1.0612,-1.0652,-1.0719,-1.0757,-1.0803,-1.0861,-1.09,-1.0956,-1.0992,-1.1069,-1.1115,-1.1162,-1.121,-1.1225,-1.1252,-1.1264,-1.1247,-1.1243,-1.1267,-1.1268,-1.1291,-1.1291,-1.1291,-1.1291,0,-1.041,-1.0474,-1.0529,-1.0615,-1.0638,-1.0663,-1.0738,-1.0769,-1.0818,-1.0867,-1.0882,-1.096,-1.1016,-1.1081,-1.1159,-1.1191,-1.1235,-1.1253,-1.1213,-1.122,-1.1222,-1.1221,-1.1218,-1.1222,-1.1257,-1.1257,-1.1257,0,-1.0399,-1.0427,-1.0516,-1.0547,-1.0586,-1.0634,-1.0671,-1.0738,-1.0774,-1.0852,-1.0873,-1.0934,-1.0986,-1.1073,-1.1137,-1.1197,-1.1217,-1.1212,-1.1226,-1.1208,-1.1217,-1.1214,-1.1218,-1.1208,-1.1207,-1.1206,-1.1206,0,-1.0373,-1.0403,-1.0454,-1.0516,-1.0558,-1.061,-1.0665,-1.0686,-1.0765,-1.0803,-1.0861,-1.0902,-1.0982,-1.1041,-1.111,-1.1153,-1.1192,-1.1201,-1.1206,-1.1188,-1.1163,-1.1177,-1.1202,-1.1201,-1.1201,-1.1201,-1.1202,-1.1202,-1.0344,-1.0371,-1.0439,-1.0494,-1.0542,-1.0592,-1.0625,-1.0679,-1.0728,-1.0798,-1.0836,-1.0893,-1.096,-1.1056,-1.1098,-1.1144,-1.1158,-1.1164,-1.1166,-1.1166,-1.1161,-1.1156,-1.1157,-1.1157,-1.1158,-1.1158,-1.1158,0,-1.032,-1.0367,-1.0417,-1.0491,-1.0535,-1.0569,-1.0631,-1.0665,-1.0715,-1.0774,-1.0824,-1.0892,-1.0951,-1.1019,-1.1083,-1.1107,-1.1127,-1.1121,-1.112,-1.1129,-1.1146,-1.1136,-1.1104,-1.1104,-1.1104,-1.1104,-1.1104,-1.1104,-1.0313,-1.0361,-1.04,-1.0473,-1.052,-1.0577,-1.061,-1.0656,-1.0703,-1.0776,-1.0825,-1.087,-1.0933,-1.1001,-1.1057,-1.1076,-1.1097,-1.1085,-1.1109,-1.1123,-1.1128,-1.1132,-1.1123,-1.1089,-1.1089,-1.1089,-1.1089,-1.1089]}]]